EW4867 Weather Reports


time (UTC)temp
C
wind
direction
speed
KPH
gust
KPH
rain 1hr
cm
rain 24hr
cm
rain mn
cm
humidity
%
barometer
mb
20260502130531 10 299 0.0 4.8 0.00 0.15 0.15 90 1011.5
20260502123531 9 198 0.0 1.6 0.00 0.15 0.15 96 1011.9
20260502123526 9 198 0.0 1.6 0.00 0.15 0.15 96 1012.0
20260502122526 9 198 0.0 0.0 0.00 0.15 0.15 96 1011.9
20260502122024 8 198 0.0 0.0 0.03 0.15 0.15 96 1012.0
20260502121524 8 198 0.0 0.0 0.05 0.15 0.15 96 1012.0
20260502121024 8 198 0.0 0.0 0.08 0.15 0.15 96 1012.0
20260502120521 8 198 0.0 0.0 0.08 0.15 0.15 96 1012.0
20260502115527 8 198 0.0 1.6 0.08 0.15 0.15 96 1012.0
20260502115522 8 198 0.0 0.0 0.08 0.15 0.15 96 1011.9
20260502114523 8 198 0.0 1.6 0.08 0.15 0.15 96 1012.2
20260502114023 8 198 0.0 0.0 0.10 0.15 0.15 96 1012.2
20260502113521 8 198 0.0 0.0 0.10 0.15 0.15 96 1012.1
20260502113020 8 198 0.0 0.0 0.10 0.15 0.15 96 1012.4
20260502112523 8 198 0.0 0.0 0.10 0.15 0.15 96 1012.5
20260502112517 8 198 0.0 1.6 0.08 0.13 0.13 95 1012.6
20260502111520 8 198 0.0 1.6 0.05 0.10 0.10 95 1012.6
20260502111016 8 198 0.0 1.6 0.05 0.08 0.08 95 1012.6
20260502110519 8 198 0.0 1.6 0.05 0.08 0.08 95 1012.2
20260502110514 8 198 0.0 1.6 0.05 0.08 0.08 95 1012.3
20260502105512 8 198 0.0 1.6 0.05 0.08 0.08 95 1012.0
20260502105009 8 198 0.0 1.6 0.05 0.08 0.08 96 1011.6
20260502104513 8 198 0.0 1.6 0.03 0.05 0.08 95 1011.6
20260502104509 8 198 0.0 1.6 0.05 0.08 0.08 95 1011.5
20260502103509 8 198 0.0 0.0 0.03 0.05 0.05 95 1011.8
20260502103009 8 198 0.0 0.0 0.03 0.05 0.05 95 1011.9
20260502102508 8 198 0.0 0.0 0.03 0.05 0.05 95 1011.9
20260502102008 8 198 0.0 0.0 0.03 0.05 0.05 95 1011.8
20260502101509 8 198 0.0 0.0 0.03 0.05 0.05 95 1011.8
20260502101011 8 198 0.0 0.0 0.00 0.03 0.03 95 1011.6
20260502101006 8 198 0.0 0.0 0.00 0.03 0.05 95 1011.9
20260502100629 8 198 0.0 0.0 0.00 0.03 0.03 95 1011.4
20260502091503 8 198 0.0 0.0 0.00 0.03 0.03 93 1011.2
20260502091004 8 198 0.0 0.0 0.03 0.03 0.03 93 1011.2
20260502090503 8 198 0.0 0.0 0.03 0.03 0.03 93 1011.2
20260502071458 9 198 0.0 0.0 0.00 0.00 0.00 88 1011.3
20260502070957 9 198 0.0 0.0 0.00 0.00 0.00 88 1011.2
20260502070502 9 198 0.0 0.0 0.00 0.00 0.00 87 1011.2
20260502070457 9 198 0.0 0.0 0.00 0.00 0.00 87 1011.1
20260502065502 9 198 0.0 0.0 0.00 0.00 0.00 86 1011.1
20260502065458 9 198 0.0 0.0 0.00 0.00 0.00 87 1011.1
20260502064956 9 198 0.0 0.0 0.00 0.00 0.00 86 1011.2
20260502063956 9 198 0.0 0.0 0.00 0.00 0.00 84 1011.0
20260502063455 9 198 0.0 0.0 0.00 0.00 0.00 85 1011.0
20260502063000 10 198 0.0 0.0 0.00 0.00 0.00 85 1011.2
20260502062956 9 198 0.0 0.0 0.00 0.00 0.00 85 1011.2
20260502061956 10 198 0.0 0.0 0.00 0.00 0.00 85 1011.2
20260502061501 10 198 0.0 0.0 0.00 0.00 0.00 84 1011.2
20260502061456 10 198 0.0 0.0 0.00 0.00 0.00 85 1011.1
20260502060453 10 198 0.0 0.0 0.00 0.00 0.00 84 1011.2
20260502060000 10 198 0.0 0.0 0.00 0.00 0.00 83 1011.2
20260502055954 10 198 0.0 0.0 0.00 0.00 0.00 84 1011.2
20260502054953 10 198 0.0 0.0 0.00 0.00 0.00 82 1011.2
20260502054454 10 198 0.0 0.0 0.00 0.00 0.00 81 1011.4
20260502053958 10 198 0.0 0.0 0.00 0.00 0.00 80 1011.4
20260502053953 10 198 0.0 0.0 0.00 0.00 0.00 80 1011.5
20260502052953 10 198 0.0 0.0 0.00 0.00 0.00 78 1011.4
20260502052455 10 198 0.0 0.0 0.00 0.00 0.00 79 1011.5
20260502051957 10 198 0.0 3.2 0.00 0.00 0.00 75 1011.4
20260502051952 10 198 0.0 3.2 0.00 0.00 0.00 77 1011.4
20260502050953 10 198 0.0 3.2 0.00 0.00 0.00 75 1011.6
20260502050451 10 198 0.0 3.2 0.00 0.00 0.00 74 1011.4
20260502045951 10 198 0.0 1.6 0.00 0.00 0.00 76 1011.4
20260502045451 10 198 0.0 4.8 0.00 0.00 0.00 75 1011.4
20260502044952 10 198 0.0 4.8 0.00 0.00 0.00 75 1011.5
20260502044453 10 199 0.0 4.8 0.00 0.00 0.00 75 1011.5
20260502043949 10 191 0.0 3.2 0.00 0.00 0.00 75 1011.4
20260502043450 10 191 0.0 1.6 0.00 0.00 0.00 75 1011.4
20260502042949 10 191 0.0 1.6 0.00 0.00 0.00 75 1011.3
20260502042450 10 191 0.0 1.6 0.00 0.00 0.00 74 1011.3
20260502041950 10 191 0.0 0.0 0.00 0.00 0.00 75 1011.3
20260502041449 10 191 0.0 0.0 0.00 0.00 0.00 75 1011.4
20260502041003 10 191 0.0 1.6 0.00 0.00 0.00 72 1011.4
20260502040950 10 191 0.0 1.6 0.00 0.00 0.00 74 1011.3
20260502040452 10 191 0.0 1.6 0.00 0.00 0.00 74 1011.3
20260502035951 10 191 0.0 1.6 0.00 0.00 0.00 73 1011.4
20260502034950 10 191 0.0 1.6 0.00 0.00 0.00 73 1011.4
20260502034454 10 191 0.0 1.6 0.00 0.00 0.00 73 1011.5
20260502034450 10 191 0.0 1.6 0.00 0.00 0.00 73 1011.4
20260502033449 11 191 0.0 1.6 0.00 0.00 0.00 72 1011.5
20260502032949 11 191 0.0 1.6 0.00 0.00 0.00 71 1011.5
20260502032448 11 191 0.0 1.6 0.00 0.00 0.00 71 1011.6
20260502031948 11 191 0.0 3.2 0.00 0.00 0.00 71 1011.6
20260502031450 11 191 0.0 3.2 0.00 0.00 0.00 69 1011.5
20260502030951 11 191 0.0 0.0 0.00 0.00 0.00 68 1011.6
20260502030449 11 191 0.0 8.0 0.00 0.00 0.00 68 1011.6
20260502025950 11 191 0.0 8.0 0.00 0.00 0.00 68 1011.6
20260502025454 11 193 0.0 3.2 0.00 0.00 0.00 67 1011.5
20260502025449 11 154 0.0 6.4 0.00 0.00 0.00 67 1011.6
20260502024449 11 193 0.0 3.2 0.00 0.00 0.00 66 1011.6
20260502023948 12 188 0.0 4.8 0.00 0.00 0.00 66 1011.5
20260502023449 12 188 1.6 4.8 0.00 0.00 0.00 64 1011.5
20260502022950 12 201 3.2 12.9 0.00 0.00 0.00 64 1011.5
20260502022450 12 187 3.2 14.5 0.00 0.00 0.00 64 1011.5
20260502021948 12 226 3.2 14.5 0.00 0.00 0.00 63 1011.4
20260502021455 12 245 1.6 8.0 0.00 0.00 0.00 61 1011.5
20260502021450 12 214 3.2 14.5 0.00 0.00 0.00 62 1011.4
20260502020448 12 193 3.2 8.0 0.00 0.00 0.00 62 1011.5
20260502015951 12 187 3.2 9.7 0.00 0.00 0.00 60 1011.5
20260502015449 12 172 1.6 9.7 0.00 0.00 0.00 60 1011.4
20260502014950 12 224 1.6 8.0 0.00 0.00 0.00 60 1011.3
20260502014449 12 197 1.6 8.0 0.00 0.00 0.00 59 1011.3
20260502013947 12 178 3.2 6.4 0.00 0.00 0.00 58 1011.4
20260502013446 12 215 3.2 11.3 0.00 0.00 0.00 57 1011.3
20260502012947 12 168 3.2 12.9 0.00 0.00 0.00 57 1011.3
20260502012458 11 216 1.6 6.4 0.00 0.00 0.00 60 1011.1
20260502012447 12 217 3.2 12.9 0.00 0.00 0.00 58 1011.3
20260502011945 11 189 1.6 11.3 0.00 0.00 0.00 57 1011.2
20260502011625 11 116 0.0 4.8 0.00 0.00 0.00 66 1011.0
20260502010947 11 116 0.0 4.8 0.00 0.00 0.00 62 1011.0
20260502005947 11 59 0.0 1.6 0.00 0.00 0.00 67 1010.9
20260502005452 11 59 0.0 3.2 0.00 0.00 0.00 66 1010.8
20260502005448 11 59 0.0 3.2 0.00 0.00 0.00 67 1010.8
20260502004447 11 39 0.0 0.0 0.00 0.00 0.00 68 1010.7
20260502003947 11 39 0.0 0.0 0.00 0.00 0.00 65 1010.5
20260502003447 11 39 0.0 0.0 0.00 0.00 0.00 64 1010.5
20260502002947 11 39 0.0 0.0 0.00 0.00 0.00 63 1010.4
20260502002452 11 39 0.0 0.0 0.00 0.00 0.00 61 1010.3
20260502002448 11 39 0.0 0.0 0.00 0.00 0.00 62 1010.3
20260502001449 12 39 0.0 0.0 0.00 0.00 0.00 60 1010.2
20260502000948 12 39 0.0 0.0 0.00 0.00 0.00 58 1010.1
20260502000448 12 39 0.0 0.0 0.00 0.00 0.00 56 1010.0
20260501235949 12 39 0.0 0.0 0.00 0.00 0.00 57 1010.0
20260501235447 13 39 0.0 0.0 0.00 0.00 0.00 55 1010.0
20260501234946 13 39 0.0 0.0 0.00 0.00 0.00 53 1009.9
20260501234447 13 39 0.0 0.0 0.00 0.00 0.00 51 1009.8
20260501233946 14 39 0.0 0.0 0.00 0.00 0.00 50 1009.8
20260501233447 15 39 0.0 0.0 0.00 0.00 0.00 49 1009.7
20260501232948 15 39 0.0 1.6 0.00 0.00 0.00 48 1009.7
20260501232448 15 39 0.0 1.6 0.00 0.00 0.00 47 1009.7
20260501231947 16 39 0.0 1.6 0.00 0.00 0.00 46 1009.6
20260501231447 16 39 0.0 1.6 0.00 0.00 0.00 43 1009.6
20260501230947 17 86 0.0 1.6 0.00 0.00 0.00 40 1009.5
20260501230448 17 218 0.0 3.2 0.00 0.00 0.00 39 1009.5
20260501225948 17 218 0.0 3.2 0.00 0.00 0.00 37 1009.4
20260501225453 17 218 0.0 4.8 0.00 0.00 0.00 39 1009.1
20260501225447 17 218 0.0 1.6 0.00 0.00 0.00 37 1009.3
20260501224947 17 218 0.0 4.8 0.00 0.00 0.00 40 1009.1
20260501223947 17 218 0.0 4.8 0.00 0.00 0.00 38 1009.1
20260501223447 17 219 1.6 8.0 0.00 0.00 0.00 38 1009.2
20260501222947 17 237 1.6 8.0 0.00 0.00 0.00 38 1009.2
20260501222448 17 290 1.6 4.8 0.00 0.00 0.00 36 1009.1
20260501221949 17 234 1.6 11.3 0.00 0.00 0.00 38 1009.2
20260501221444 17 226 3.2 11.3 0.00 0.00 0.00 35 1009.2
20260501220944 17 211 3.2 11.3 0.00 0.00 0.00 37 1009.2
20260501220444 17 222 1.6 9.7 0.00 0.00 0.00 36 1009.2
20260501215945 17 202 1.6 8.0 0.00 0.00 0.00 37 1009.3
20260501215446 17 234 3.2 11.3 0.00 0.00 0.00 36 1009.4
20260501214945 17 220 1.6 11.3 0.00 0.00 0.00 38 1009.3
20260501214445 17 171 3.2 11.3 0.00 0.00 0.00 38 1009.3
20260501213951 17 195 4.8 19.3 0.00 0.00 0.00 35 1009.3
20260501213945 17 190 4.8 9.7 0.00 0.00 0.00 38 1009.3
20260501212946 18 172 3.2 19.3 0.00 0.00 0.00 35 1009.3
20260501212446 18 112 3.2 8.0 0.00 0.00 0.00 36 1009.2
20260501211946 17 214 3.2 14.5 0.00 0.00 0.00 37 1009.2
20260501211453 17 251 4.8 12.9 0.00 0.00 0.00 37 1009.2
20260501211446 17 232 4.8 14.5 0.00 0.00 0.00 36 1009.1
20260501211109 17 203 4.8 12.9 0.00 0.00 0.00 36 1009.1
20260501210612 17 188 3.2 12.9 0.00 0.00 0.00 35 1009.2
20260501205450 17 172 3.2 11.3 0.00 0.00 0.00 38 1009.1
20260501205446 17 255 4.8 11.3 0.00 0.00 0.00 38 1009.1
20260501204446 17 146 3.2 14.5 0.00 0.00 0.00 40 1009.1
20260501203949 17 28 4.8 20.9 0.00 0.00 0.00 37 1009.3
20260501203944 17 213 4.8 14.5 0.00 0.00 0.00 37 1009.2
20260501202945 17 226 4.8 20.9 0.00 0.00 0.00 37 1009.1
20260501202450 17 181 3.2 11.3 0.00 0.00 0.00 37 1009.1
20260501202445 17 168 4.8 11.3 0.00 0.00 0.00 35 1009.1
20260501201447 17 263 1.6 8.0 0.00 0.00 0.00 38 1009.1
20260501200941 17 31 1.6 6.4 0.00 0.00 0.00 41 1009.2
20260501200450 17 218 4.8 14.5 0.00 0.00 0.00 39 1009.2
20260501200445 17 91 3.2 14.5 0.00 0.00 0.00 37 1009.2
20260501195442 17 234 4.8 14.5 0.00 0.00 0.00 38 1009.1
20260501194942 17 239 3.2 14.5 0.00 0.00 0.00 37 1009.1
20260501194446 17 248 4.8 16.1 0.00 0.00 0.00 36 1009.2
20260501194441 17 263 4.8 16.1 0.00 0.00 0.00 40 1009.1
20260501193441 17 198 3.2 12.9 0.00 0.00 0.00 39 1009.3
20260501193107 17 161 3.2 14.5 0.00 0.00 0.00 39 1009.6
20260501192943 17 233 4.8 17.7 0.00 0.00 0.00 37 1009.4
20260501192450 17 19 3.2 14.5 0.00 0.00 0.00 41 1009.5
20260501192443 17 193 6.4 17.7 0.00 0.00 0.00 37 1009.3
20260501190942 17 248 4.8 14.5 0.00 0.00 0.00 40 1009.7
20260501190446 16 298 6.4 17.7 0.00 0.00 0.00 37 1009.7
20260501190442 16 5 6.4 17.7 0.00 0.00 0.00 37 1009.7
20260501185446 16 193 4.8 17.7 0.00 0.00 0.00 37 1009.7
20260501185441 16 216 4.8 17.7 0.00 0.00 0.00 37 1009.7
20260501184442 16 153 4.8 16.1 0.00 0.00 0.00 40 1009.7
20260501183942 16 297 4.8 16.1 0.00 0.00 0.00 39 1009.7
20260501183446 16 200 3.2 12.9 0.00 0.00 0.00 45 1009.8
20260501183441 16 185 3.2 12.9 0.00 0.00 0.00 41 1009.8
20260501182441 16 29 3.2 8.0 0.00 0.00 0.00 42 1009.8
20260501181942 16 252 3.2 11.3 0.00 0.00 0.00 40 1009.9
20260501181441 16 86 4.8 19.3 0.00 0.00 0.00 41 1010.1
20260501180943 16 251 4.8 19.3 0.00 0.00 0.00 44 1010.0
20260501180442 16 267 3.2 19.3 0.00 0.00 0.00 42 1009.9
20260501175942 16 232 3.2 19.3 0.00 0.00 0.00 38 1010.0
20260501175439 16 191 3.2 6.4 0.00 0.00 0.00 41 1010.0
20260501174940 16 74 3.2 8.0 0.00 0.00 0.00 44 1010.0
20260501174440 16 237 4.8 14.5 0.00 0.00 0.00 38 1010.0
20260501173941 16 179 4.8 14.5 0.00 0.00 0.00 44 1010.0
20260501173440 16 233 3.2 12.9 0.00 0.00 0.00 42 1010.0
20260501172946 15 223 3.2 14.5 0.00 0.00 0.00 45 1010.1
20260501172941 16 224 3.2 6.4 0.00 0.00 0.00 44 1010.0
20260501171939 15 149 3.2 14.5 0.00 0.00 0.00 41 1010.1
20260501171446 15 5 1.6 11.3 0.00 0.00 0.00 47 1010.1
20260501171441 15 27 1.6 6.4 0.00 0.00 0.00 45 1010.0
20260501170440 14 228 1.6 11.3 0.00 0.00 0.00 49 1010.2
20260501165940 14 23 3.2 11.3 0.00 0.00 0.00 46 1010.3
20260501165439 15 170 4.8 12.9 0.00 0.00 0.00 48 1010.3
20260501164945 14 206 4.8 17.7 0.00 0.00 0.00 52 1010.2
20260501164941 15 181 4.8 12.9 0.00 0.00 0.00 48 1010.2
20260501164603 14 207 4.8 17.7 0.00 0.00 0.00 46 1010.3
20260501164104 14 200 6.4 16.1 0.00 0.00 0.00 48 1010.5
20260501163602 14 228 6.4 17.7 0.00 0.00 0.00 48 1010.5
20260501163114 15 251 4.8 16.1 0.00 0.00 0.00 49 1010.5
20260501163107 14 273 4.8 17.7 0.00 0.00 0.00 47 1010.6
20260501161439 14 244 4.8 14.5 0.00 0.00 0.00 48 1010.6
20260501160940 14 133 3.2 12.9 0.00 0.00 0.00 48 1010.6
20260501160440 14 250 1.6 11.3 0.00 0.00 0.00 54 1010.6
20260501155947 13 29 4.8 16.1 0.00 0.00 0.00 50 1010.8
20260501155939 14 10 1.6 11.3 0.00 0.00 0.00 51 1010.8
20260501155439 13 40 1.6 9.7 0.00 0.00 0.00 52 1010.8
20260501155102 13 235 4.8 16.1 0.00 0.00 0.00 52 1011.0
20260501153941 13 195 4.8 12.9 0.00 0.00 0.00 57 1011.0
20260501153439 13 155 3.2 12.9 0.00 0.00 0.00 56 1011.0
20260501152941 13 251 4.8 11.3 0.00 0.00 0.00 55 1011.0
20260501152441 13 226 3.2 11.3 0.00 0.00 0.00 56 1011.1
20260501151945 12 229 1.6 8.0 0.00 0.00 0.00 53 1011.1
20260501151941 12 268 1.6 9.7 0.00 0.00 0.00 56 1011.1
20260501150941 12 230 3.2 12.9 0.00 0.00 0.00 57 1011.1
20260501150442 12 79 3.2 12.9 0.00 0.00 0.00 57 1011.2
20260501145938 12 225 1.6 9.7 0.00 0.00 0.00 57 1011.1
20260501145438 12 234 1.6 8.0 0.00 0.00 0.00 56 1011.1
20260501144937 12 177 1.6 8.0 0.00 0.00 0.00 60 1011.1
20260501144438 11 202 3.2 11.3 0.00 0.00 0.00 56 1011.2
20260501143938 12 223 3.2 12.9 0.00 0.00 0.00 59 1011.2
20260501143444 12 108 1.6 6.4 0.00 0.00 0.00 56 1011.3
20260501143439 12 209 3.2 12.9 0.00 0.00 0.00 57 1011.2
20260501142440 12 83 1.6 8.0 0.00 0.00 0.00 61 1011.3
20260501141938 11 349 3.2 11.3 0.00 0.00 0.00 61 1011.3
20260501141438 11 10 3.2 11.3 0.00 0.00 0.00 63 1011.2
20260501140938 10 51 1.6 8.0 0.00 0.00 0.00 65 1011.2
20260501140439 10 31 1.6 8.0 0.00 0.00 0.00 62 1011.3